Weather observations for the past three days for
Panama City - Northwest Florida Beaches International Airport
Imperial (Metric)
Date Time (cdt) Wind (mph) Vis. (mi.) Weather Sky Cond. Temperature (ºF) Relative Humidity Wind Chill (°F) Heat Index (°F) Pressure Precipitation (in)
Air Dwpt 6 hour altimeter (in) sea level (mb) 1 hr 3 hr 6 hr
Max. Min.
22 11:53 N 3 10.00 Partly Cloudy SCT065 91.9 68 46% 96 30.06 1019.1
22 10:53 NE 5 10.00 Fair CLR 91.9 66.9 44% 95 30.08 1019.6
22 09:53 NE 3 10.00 Mostly Cloudy BKN080 90 66.9 47% 93 30.09 1019.8
22 08:53 NE 7 10.00 Mostly Cloudy BKN080 84 68 59% 87 30.09 1019.8
22 07:53 N 5 10.00 Mostly Cloudy BKN070 78.1 71.1 79% 80 30.09 1019.9
22 06:53 N 5 10.00 Overcast OVC065 75 72 75 72 90% 74 30.07 1019.3
22 05:53 Calm 10.00 Fair CLR 72 71.1 97% 30.05 1018.7
22 04:53 Calm 10.00 Fair CLR 73 71.1 94% 30.04 1018.3
22 03:53 NW 5 10.00 Fair CLR 73 72 96% 30.04 1018.4
22 02:53 NW 3 10.00 Fair CLR 73.9 72 94% 30.04 1018.4
22 01:53 NW 3 10.00 Fair CLR 73 71.1 94% 30.06 1018.9
22 00:53 Calm 10.00 Fair CLR 73.9 71.1 84.9 73.9 91% 30.07 1019.1
21 23:53 NW 3 10.00 Fair CLR 73.9 71.1 91% 30.08 1019.7
21 22:53 Calm 10.00 Fair CLR 75 71.1 88% 75 30.09 1019.9
21 21:53 Calm 10.00 Fair CLR 75 72 90% 74 30.07 1019.4
21 20:53 Calm 10.00 Fair CLR 80.1 72 76% 84 30.05 1018.7
21 19:53 S 6 10.00 Fair CLR 81 72 74% 85 30.05 1018.6
21 18:53 S 9 10.00 Fair CLR 84.9 71.1 93.9 84.9 63% 90 30.04 1018.3
21 17:53 S 8 10.00 Fair CLR 88 72 59% 95 30.04 1018.3
21 16:53 N 9 10.00 Fair CLR 93.9 64 37% 96 30.05 1018.5
21 15:53 NE 10 10.00 Fair CLR 93 63 37% 94 30.05 1018.6
21 14:53 NW 8 G 20 10.00 Fair CLR 93 64 38% 95 30.07 1019.3
21 13:53 NE 9 G 22 10.00 Fair CLR 91.9 63 38% 93 30.09 1020.0
21 12:53 NE 13 10.00 Fair CLR 91 63 91 75 39% 92 30.11 1020.5
21 11:53 N 13 G 25 10.00 Fair CLR 90 64 42% 91 30.12 1020.9
21 10:53 NE 18 G 26 10.00 Fair CLR 87.1 64 46% 88 30.12 1021.1
21 09:53 NE 10 10.00 Fair CLR 84.9 66.9 55% 88 30.14 1021.6
21 08:53 NE 10 10.00 Fair CLR 82 66.9 60% 85 30.15 1022.1
21 07:53 NE 9 10.00 Fair CLR 79 69.1 72% 82 30.15 1022.1
21 06:53 N 6 10.00 Fair CLR 75 68 78.1 72 79% 76 30.16 1022.4
21 05:53 NE 5 10.00 Fair CLR 72 66.9 84% 30.16 1022.3
21 04:53 NE 5 10.00 Fair CLR 73 68 84% 30.14 1021.7
21 03:53 NE 5 10.00 Fair CLR 73 68 84% 30.12 1021.1
21 02:53 NE 7 10.00 Fair CLR 75 66.9 76% 76 30.12 1020.9
21 01:53 NE 5 10.00 Fair CLR 75 66.9 76% 76 30.13 1021.4
21 00:53 NE 6 10.00 Fair CLR 78.1 66.9 87.1 75.9 69% 80 30.14 1021.6
20 23:53 NE 7 10.00 Fair CLR 77 70 79% 79 30.14 1021.6
20 22:53 N 5 10.00 A Few Clouds FEW065 79 71.1 77% 82 30.14 1021.6
20 21:53 Calm 10.00 A Few Clouds FEW065 78.1 75 90% 81 30.14 1021.6
20 20:53 N 3 10.00 Fair CLR 81 73.9 79% 86 30.12 1021.0
20 19:53 N 6 10.00 A Few Clouds FEW060 81 77 88% 88 30.11 1020.5
20 18:53 NW 5 10.00 Mostly Cloudy FEW050 BKN065 87.1 75.9 90 82.9 70% 98 30.1 1020.2 0.01
20 17:53 Calm 10.00 Overcast SCT050 BKN075 OVC100 84 75 74% 92 30.1 1020.2
20 16:53 N 10 10.00 Mostly Cloudy BKN055 89.1 73 59% 97 30.1 1020.4
20 15:53 N 10 10.00 Mostly Cloudy BKN055 90 75.9 63% 102 30.11 1020.6 0.01
20 14:53 Vrbl 5 10.00 Overcast BKN044 BKN050 OVC090 87.1 73.9 65% 95 30.12 1021.1
20 13:53 E 7 7.00 Light Rain SCT038 BKN049 84.9 75 72% 93 30.13 1021.4 0.01
20 12:53 E 7 10.00 Mostly Cloudy SCT038 BKN070 89.1 73 90 75.9 59% 97 30.14 1021.7
20 11:53 NE 12 10.00 Mostly Cloudy BKN026 BKN038 87.1 73 63% 95 30.16 1022.3
20 10:53 E 14 G 24 10.00 Mostly Cloudy BKN022 BKN048 86 73 65% 93 30.15 1022.1
20 09:53 E 10 G 22 10.00 Mostly Cloudy BKN021 BKN046 82.9 73 72% 89 30.16 1022.4
20 08:53 NE 10 G 21 10.00 Mostly Cloudy BKN017 81 72 74% 85 30.15 1021.9
20 07:53 NE 14 G 22 10.00 Fair CLR 79 70 74% 82 30.13 1021.4
20 06:53 N 9 10.00 Fair CLR 75 69.1 77 73 82% 75 30.13 1021.2
20 05:53 N 7 10.00 Fair CLR 73 68 84% 30.11 1020.6
20 04:53 NE 8 10.00 Fair CLR 73.9 68 82% 30.1 1020.4
20 03:53 N 8 10.00 Fair CLR 73.9 66.9 79% 30.1 1020.4
20 02:53 NE 8 10.00 Fair CLR 75 66.9 76% 76 30.09 1020.0
20 01:53 NE 5 10.00 Fair CLR 75 66.9 76% 76 30.11 1020.5
20 00:53 NE 5 10.00 Fair CLR 77 66 84.9 77 69% 79 30.12 1020.9
19 23:53 NE 7 10.00 Fair CLR 78.1 66.9 69% 80 30.11 1020.7
19 22:53 E 7 10.00 Fair CLR 80.1 68 67% 83 30.11 1020.6
19 21:53 NE 6 10.00 Fair CLR 82 68 63% 85 30.1 1020.3
19 20:53 N 3 10.00 Fair CLR 80.1 71.1 74% 84 30.07 1019.3
19 19:53 NE 5 10.00 Overcast OVC090 84 70 63% 88 30.07 1019.2
19 18:53 NE 5 10.00 Overcast OVC080 84.9 71.1 89.1 84.9 63% 90 30.06 1019.0
19 17:53 E 8 10.00 Overcast OVC070 86 70 59% 91 30.05 1018.6
19 16:53 NE 10 10.00 Overcast SCT055 OVC070 88 71.1 57% 94 30.04 1018.3
19 15:53 E 9 G 22 10.00 Overcast BKN046 OVC055 87.1 71.1 59% 93 30.05 1018.6
19 14:53 E 12 G 24 10.00 Overcast SCT045 SCT060 OVC080 88 71.1 57% 94 30.06 1019.0
19 13:53 E 15 G 25 10.00 Mostly Cloudy BKN042 BKN050 87.1 70 57% 92 30.08 1019.5
19 12:53 NE 17 G 28 10.00 Partly Cloudy SCT042 SCT050 89.1 71.1 90 77 55% 95 30.07 1019.4
Date Time (cdt) Wind (mph) Vis. (mi.) Weather Sky Cond. Air Dwpt Max. Min. Relative Humidity Wind Chill (°F) Heat Index (°F) altimeter (in) sea level (mb) 1 hr 3 hr 6 hr
6 hour
Temperature (ºF) Pressure Precipitation (in)